Theta_e
328 330 325 320 305 302 297 298 300 300 300 303 306 303 302 305 304 299 315 321 322 322 326 327 334 336 339 339 339 340 340 341 342 341 341 341 340 339 339 338 338 340 342 344 345 345 344 344 344
323 323 320 314 300 296 297 300 298 301 304 305 305 304 301 302 310 309 309 319 320 320 321 323 332 333 335 334 335 335 336 335 336 337 336 334 333 334 334 333 333 334 335 336 337 337 338 339 340
322 320 312 306 300 295 295 298 300 303 304 303 301 302 303 303 310 309 313 316 317 316 319 321 328 330 331 330 330 330 331 332 334 329 328 327 327 326 326 326 326 327 329 331 333 334 334 333 334
318 313 309 297 295 299 297 299 303 302 302 304 303 299 303 306 309 309 313 315 313 314 316 321 324 326 326 325 325 325 325 327 326 323 322 321 321 321 321 320 321 321 322 324 328 327 327 326 327
314 310 300 297 298 298 301 302 304 302 301 302 302 300 301 305 308 308 310 312 309 310 313 316 321 322 322 322 321 321 321 321 320 319 318 317 317 317 317 318 318 318 318 320 320 320 319 319 320
307 306 297 294 298 300 300 301 302 302 303 302 300 299 301 306 305 304 306 306 308 308 310 312 317 318 318 319 318 318 317 317 316 315 314 314 313 313 313 315 315 316 316 317 317 317 317 316 316
305 304 298 298 298 299 302 303 300 301 301 301 303 298 299 302 305 304 302 302 304 305 306 307 308 310 314 315 315 315 314 312 311 310 310 309 309 309 309 310 312 312 313 314 314 314 314 314 314
306 303 298 298 297 298 301 302 301 302 301 304 305 298 297 303 305 303 301 300 299 300 301 301 304 305 305 305 311 310 310 309 307 306 305 306 306 306 305 305 308 309 310 310 311 311 311 311 312
310 298 296 299 298 298 301 299 302 301 298 300 304 300 301 305 303 300 298 298 297 299 299 299 299 301 302 302 305 306 306 305 305 303 302 305 298 298 300 303 305 306 307 308 309 309 309 308 308
303 299 301 301 300 298 301 300 300 297 298 299 300 302 303 303 300 298 297 296 295 295 297 298 298 298 300 300 299 300 300 299 299 299 298 298 297 297 300 303 304 304 304 304 305 306 304 302 299
303 299 302 303 302 302 301 300 302 298 297 299 300 302 300 300 298 298 298 298 297 296 296 297 297 298 297 296 298 298 298 297 298 297 297 297 297 296 296 296 296 296 300 295 297 296 296 296 296
299 304 304 305 303 301 299 301 300 300 300 303 303 304 301 300 298 298 299 299 299 297 297 296 297 297 297 297 297 297 297 297 296 295 295 295 294 293 293 293 293 293 293 292 292 293 294 294 295
300 302 304 303 302 301 302 299 299 299 302 305 304 302 300 301 300 300 300 301 299 298 297 295 295 296 297 296 296 296 295 295 295 295 294 294 293 292 293 292 292 291 291 291 290 291 291 292 293
301 302 301 302 302 302 299 298 299 300 303 303 303 300 301 301 301 300 300 301 301 300 297 296 295 295 297 295 295 295 295 294 294 294 293 293 292 290 291 291 291 290 290 290 290 290 290 290 292
301 296 299 300 301 299 300 295 297 302 301 301 301 301 300 301 302 302 302 301 302 300 298 295 295 296 295 295 295 295 294 294 293 293 292 292 292 290 290 290 289 289 289 289 289 289 289 289 290
296 296 291 298 300 299 298 291 300 302 301 299 299 299 300 300 302 302 303 302 302 299 297 296 297 295 294 293 294 294 293 292 293 292 292 291 291 290 289 288 288 289 288 288 288 288 287 287 288
296 290 292 296 300 297 295 292 298 299 297 298 298 299 300 301 301 302 301 301 300 299 296 295 294 294 293 293 293 293 292 291 291 291 290 290 290 290 288 287 287 288 287 287 287 286 286 285 286
290 291 293 292 296 296 293 293 298 299 298 297 297 298 299 300 301 302 301 301 300 298 296 294 294 292 293 293 292 291 291 291 290 289 290 290 289 289 288 287 287 287 286 286 286 285 285 285 285
296 294 292 296 298 295 294 294 297 299 298 297 299 300 300 300 302 302 302 301 299 297 295 294 292 292 293 291 290 289 289 289 289 289 289 289 288 288 287 286 286 285 284 285 285 285 284 284 285
294 292 292 295 297 294 293 293 296 297 298 299 299 299 300 298 299 299 300 299 298 296 295 293 293 292 292 292 291 290 289 289 289 289 288 288 287 287 286 285 284 284 283 284 284 284 283 283 284
293 291 292 291 294 291 289 288 291 295 298 299 300 300 300 297 298 298 298 298 297 295 294 293 293 292 292 292 291 289 289 287 286 287 286 287 287 286 286 284 284 283 283 282 282 282 282 281 282
289 295 293 292 288 285 291 281 289 292 293 294 297 297 296 296 298 298 297 296 296 295 295 293 293 292 292 292 291 288 287 284 285 287 286 286 286 285 285 285 283 283 282 282 282 284 282 281 280
292 293 290 290 288 286 287 283 288 293 291 293 295 297 298 297 298 297 296 297 296 295 293 293 292 292 292 292 291 288 286 285 286 286 286 285 284 284 284 284 283 282 282 282 282 281 281 281 280
292 290 289 287 285 279 286 285 284 288 292 292 294 295 297 297 296 296 296 296 295 294 292 292 291 291 291 291 290 288 286 286 284 283 283 283 283 283 283 283 282 282 281 280 281 281 281 280 280
290 287 280 278 277 279 288 285 289 291 292 293 294 295 295 296 295 294 294 293 293 293 292 291 291 290 291 290 290 288 287 286 285 284 283 282 282 281 281 281 281 280 280 281 280 280 280 280 279
287 289 281 275 277 283 284 281 287 294 296 294 295 297 295 295 295 294 294 293 292 292 292 291 291 290 290 290 289 288 287 287 286 285 284 282 281 281 281 280 280 279 280 280 279 279 280 280 280
288 283 290 282 277 277 285 287 291 292 293 293 294 293 292 293 294 294 293 292 292 292 291 291 290 290 290 289 289 288 287 286 285 283 282 281 280 280 279 279 278 278 278 279 279 278 279 279 279
288 290 282 283 272 272 282 281 285 288 292 291 290 291 291 293 293 293 293 293 293 292 292 291 290 289 289 288 288 288 286 285 283 282 281 279 279 278 278 277 277 277 278 278 278 278 279 278 278
283 283 285 286 284 278 278 282 288 290 291 291 291 293 292 293 293 293 293 293 293 292 291 290 289 288 288 287 287 286 285 283 281 281 280 279 278 278 277 277 277 277 277 277 276 276 276 276 276
289 288 287 282 281 281 283 284 293 291 292 292 291 293 293 294 295 293 293 292 291 291 290 289 289 288 288 287 286 285 282 281 280 279 278 278 277 277 276 276 276 275 275 275 275 274 275 274 274
Wind_Speed
5 8 5 3 1 3 6 5 4 5 1 4 7 4 2 6 2 3 4 6 7 7 10 8 10 9 11 14 13 13 12 11 13 14 13 14 14 14 13 13 15 15 15 15 16 16 15 14 13
6 5 2 4 2 4 3 8 5 7 6 7 7 4 1 4 7 8 7 6 7 8 9 7 8 10 12 11 12 12 11 11 11 11 12 12 11 12 13 13 13 13 13 13 12 12 14 15 15
7 4 2 3 5 7 3 4 7 8 7 5 4 2 5 4 8 10 8 9 7 8 8 6 9 11 12 11 12 12 12 12 14 13 12 12 12 13 13 13 13 13 13 13 12 12 14 13 13
3 2 4 2 10 9 4 3 15 8 3 4 1 3 5 2 5 10 10 9 8 9 8 7 10 11 12 12 12 12 12 12 13 13 13 12 12 13 13 13 13 13 13 13 13 13 12 11 11
2 4 3 6 10 3 5 5 9 9 8 8 4 4 4 5 11 11 10 9 8 9 8 6 10 12 12 12 12 12 12 12 11 11 12 12 12 13 13 13 14 14 14 14 13 14 14 14 14
3 3 4 6 6 5 4 3 6 9 9 7 6 5 6 11 10 9 8 8 8 9 8 7 9 11 10 11 11 11 11 12 11 11 12 12 12 13 13 14 14 15 15 15 15 16 15 15 14
3 2 6 10 9 2 5 6 5 7 7 7 2 3 4 9 9 9 9 9 9 9 8 8 7 9 10 10 11 11 11 11 11 10 11 12 12 13 14 14 14 15 14 15 15 16 17 17 15
3 2 6 6 4 5 5 5 4 6 4 4 8 6 5 12 12 10 8 8 8 8 8 8 8 8 7 6 10 11 11 11 10 9 7 7 10 10 11 10 11 13 12 14 15 16 15 16 16
1 3 5 8 0 0 6 5 6 1 1 3 7 2 4 16 12 8 7 8 7 7 8 8 8 7 8 7 7 10 11 9 8 7 1 0 5 5 7 8 10 11 12 14 14 15 16 17 16
4 3 6 3 5 3 6 7 6 2 6 7 5 7 6 13 12 11 11 11 9 9 7 7 7 7 8 8 7 7 6 4 4 4 4 3 5 3 4 5 12 12 15 16 17 16 16 13 5
6 5 1 4 2 3 5 5 7 6 8 8 12 11 13 10 12 13 13 12 13 10 7 8 8 8 7 6 5 3 3 3 4 4 3 2 4 3 3 3 3 4 9 4 7 7 5 7 5
4 11 8 1 2 1 4 4 6 12 11 2 3 3 19 19 18 17 16 14 12 12 11 9 9 8 8 5 4 5 4 4 4 4 2 2 2 3 4 3 4 4 4 6 5 4 5 6 6
8 9 6 6 4 5 7 9 8 13 11 14 7 3 15 17 17 16 14 12 10 13 13 11 9 8 7 7 5 5 5 4 5 5 3 3 4 4 4 4 4 4 4 3 4 4 4 5 6
5 7 10 7 9 7 6 6 5 9 15 14 9 12 11 15 17 13 15 15 15 14 14 12 10 8 8 6 7 5 5 5 4 4 4 4 4 3 3 3 3 4 3 3 3 3 4 5 5
3 7 9 11 11 6 5 10 16 21 5 8 11 12 13 13 14 20 19 18 16 13 13 15 11 10 9 8 7 6 5 6 5 5 6 5 4 4 3 3 3 3 2 3 3 4 4 5 5
4 5 4 2 11 6 9 14 12 16 13 14 11 9 9 13 16 13 13 15 13 11 15 14 13 11 9 7 6 5 5 4 5 5 5 6 6 4 3 3 3 2 1 2 3 4 4 5 5
9 7 10 8 10 9 10 10 4 4 2 7 10 11 12 13 15 14 13 12 12 13 14 14 13 12 10 8 6 6 7 5 5 5 5 7 6 5 3 3 2 2 2 3 3 4 4 4 5
7 10 9 10 9 7 7 17 13 9 6 11 11 12 13 13 15 15 14 14 15 14 14 14 11 10 9 6 5 4 5 4 5 5 5 7 5 5 4 3 2 2 2 3 3 4 3 4 5
13 15 16 22 10 9 15 17 18 15 10 11 14 18 15 14 12 15 17 14 15 14 15 16 14 12 11 6 7 5 7 5 4 4 7 8 6 7 6 4 2 2 2 0 1 2 4 3 4
9 12 19 15 10 10 12 14 11 10 17 18 18 18 21 8 9 10 16 14 16 17 16 16 17 15 12 9 7 4 5 4 5 5 7 7 7 7 5 5 3 3 2 1 2 1 2 3 2
19 13 19 18 13 4 5 8 13 11 20 19 20 21 18 11 11 11 16 16 14 17 18 18 19 18 15 11 7 3 4 4 4 6 5 6 8 7 6 6 5 4 3 3 2 1 2 3 3
22 10 11 12 7 11 9 9 9 7 9 10 16 15 12 10 9 10 12 15 17 16 16 17 17 17 15 14 13 13 11 7 4 6 5 6 8 7 7 7 6 5 3 3 3 3 3 2 4
17 4 4 5 7 7 8 10 9 11 10 13 11 14 14 10 11 11 13 16 15 15 15 15 16 16 15 16 15 13 11 6 5 5 9 8 6 8 7 7 6 5 4 4 4 3 4 3 3
4 0 4 3 2 11 11 12 5 9 12 7 9 14 16 8 9 8 9 10 12 12 12 14 16 15 15 15 15 16 16 11 7 7 8 6 4 5 7 7 6 6 5 5 4 4 4 4 4
4 3 4 4 3 14 15 15 19 6 8 11 12 13 7 9 9 10 12 11 12 14 13 12 16 17 16 16 17 16 14 12 13 13 9 8 5 4 7 7 6 5 5 5 3 3 5 4 4
10 10 7 8 7 20 5 10 7 10 11 12 12 17 10 10 9 10 11 11 10 12 16 17 19 18 18 17 17 14 13 11 10 12 9 7 6 6 7 7 6 6 5 5 4 3 4 4 5
6 7 4 4 1 5 11 12 9 4 11 11 15 8 9 9 9 10 9 9 11 14 18 19 18 17 18 18 15 15 13 13 12 10 8 7 6 6 8 7 7 6 5 5 4 3 5 5 5
3 3 3 3 3 9 22 12 17 7 17 9 6 8 7 7 9 9 10 12 12 13 13 15 15 18 17 15 15 13 14 11 9 10 10 9 8 8 8 7 6 5 5 5 5 4 4 5 5
4 5 5 2 6 10 15 16 7 6 3 10 9 8 9 10 10 10 11 11 13 12 13 14 16 17 16 14 15 14 12 10 9 11 11 10 8 8 8 7 7 6 5 5 4 4 4 6 7
9 15 14 11 14 5 9 32 6 8 10 10 9 10 8 8 10 10 11 11 11 13 12 17 16 16 16 15 14 14 10 10 11 11 10 9 9 7 7 7 5 5 4 4 4 5 5 7 9
Wind_Direction
279 232 262 301 291 206 255 165 80 112 100 66 318 59 41 75 354 194 140 117 111 105 104 71 73 71 69 71 74 72 66 67 71 67 64 60 53 52 50 49 40 34 32 29 29 32 27 21 16
302 275 265 275 245 256 290 106 149 153 71 83 35 35 333 86 92 118 128 159 113 99 85 78 81 90 88 86 84 85 88 83 84 82 72 66 65 62 55 51 47 41 37 30 22 16 19 19 13
277 271 275 201 233 256 32 113 143 78 99 131 146 10 354 87 103 141 114 137 128 103 101 95 98 97 96 90 87 87 83 82 83 82 76 68 66 61 56 50 44 37 32 31 30 29 28 20 8
292 208 272 256 270 293 33 119 110 112 82 331 58 172 81 327 119 123 135 148 119 108 104 106 109 106 102 98 95 91 88 87 86 79 72 64 60 58 55 50 46 40 33 29 31 28 23 17 14
246 268 258 228 248 226 95 333 120 157 159 173 168 166 136 157 100 125 146 138 136 109 114 108 116 111 110 106 100 96 92 90 86 83 77 69 63 58 51 46 43 39 35 31 26 19 12 6 2
277 231 277 257 301 86 94 178 156 173 166 124 167 281 138 134 132 148 150 144 140 115 114 107 93 102 105 108 104 100 98 95 93 89 86 80 71 60 54 43 40 35 30 28 23 16 10 5 360
254 278 258 284 309 303 176 135 215 198 178 172 89 216 107 156 156 151 160 145 132 130 134 140 131 111 106 108 111 108 103 96 93 91 87 77 71 63 53 45 42 35 30 26 20 14 7 4 1
320 281 267 263 269 339 101 145 29 258 229 38 136 224 196 175 151 146 152 144 145 150 152 142 142 149 130 113 120 117 112 102 96 90 94 92 79 80 65 47 42 41 34 29 22 17 11 7 11
244 280 268 268 319 270 105 196 150 105 193 212 180 355 77 135 134 148 157 165 168 168 167 156 164 154 135 133 138 130 128 128 125 114 164 167 71 36 84 52 41 41 32 29 24 19 17 11 5
214 232 262 28 359 285 161 216 170 184 209 217 197 111 121 143 156 174 182 189 186 179 181 163 164 158 154 156 167 167 165 152 105 80 69 75 106 119 80 54 42 32 31 23 19 16 13 4 350
220 230 64 310 308 358 286 220 244 189 245 203 211 192 162 165 178 191 197 198 193 178 178 172 170 165 171 150 161 158 144 139 123 97 86 55 87 58 55 45 32 24 26 21 11 9 6 352 347
265 244 260 312 86 289 251 281 258 215 229 326 215 210 163 176 187 196 200 202 186 181 178 175 170 163 174 151 160 156 143 146 137 125 83 106 91 71 58 53 45 44 21 23 8 1 345 339 330
223 262 280 256 180 239 278 257 253 255 243 239 222 156 173 188 198 200 201 200 188 187 176 172 162 166 168 156 177 157 141 152 137 130 95 58 85 72 66 52 49 50 29 27 348 344 333 332 322
6 304 291 265 216 219 225 256 209 236 234 242 231 194 196 196 201 201 201 201 197 184 174 165 162 164 161 175 164 159 153 146 146 129 129 91 95 90 88 84 74 70 36 349 326 320 329 318 317
278 300 268 238 215 227 166 272 233 242 250 230 230 215 197 212 197 207 206 201 194 186 165 168 162 167 166 181 166 160 163 152 154 141 140 128 103 105 103 104 82 78 350 319 327 330 335 328 320
231 233 282 273 169 159 137 269 235 243 204 219 228 241 221 211 219 213 206 198 192 173 170 164 170 171 166 175 161 154 151 156 151 145 147 139 126 128 128 115 109 105 331 345 338 342 347 326 320
221 251 235 262 176 137 178 254 255 67 158 222 220 232 232 224 218 204 191 181 184 174 170 167 168 169 163 166 162 160 157 172 160 152 153 148 143 140 132 148 159 91 17 9 350 8 339 324 313
225 225 253 259 199 188 209 251 264 254 244 252 248 242 240 243 221 199 186 176 172 169 168 163 165 161 162 156 153 149 150 176 158 165 158 144 145 155 173 177 165 107 55 11 10 345 309 298 298
253 264 264 267 253 181 236 240 251 261 254 245 253 257 251 242 230 198 184 170 165 163 164 165 165 170 170 168 168 167 176 176 169 171 155 158 159 174 183 177 139 108 98 149 312 277 310 305 318
270 268 266 276 295 206 248 251 252 259 262 256 255 262 261 238 242 183 169 170 171 166 167 167 175 176 180 176 174 161 161 185 171 168 164 168 165 182 173 163 161 151 134 11 279 283 325 288 357
247 249 259 263 283 223 312 269 252 245 249 258 261 255 259 227 229 175 171 174 162 169 174 175 180 180 182 172 165 158 125 101 153 178 170 176 171 178 171 173 166 166 146 210 233 290 261 278 311
265 235 256 266 285 259 177 283 231 220 227 226 248 256 247 221 214 166 167 169 171 178 177 180 180 183 183 174 178 182 182 172 189 178 163 174 176 176 174 175 167 166 176 209 223 228 211 218 257
264 205 231 270 264 302 258 280 219 190 231 239 242 254 257 219 193 164 173 173 175 175 178 182 184 188 187 188 186 179 185 179 160 162 168 171 179 177 178 171 169 171 183 200 217 239 240 227 236
118 89 214 230 208 255 207 216 213 202 211 221 223 240 253 176 157 160 156 153 170 174 176 180 188 194 189 190 190 189 186 177 159 157 163 171 178 179 179 174 166 176 187 204 218 228 238 242 244
195 139 292 299 199 251 186 223 239 197 177 188 210 234 191 153 158 166 162 171 174 177 178 181 192 199 192 192 197 192 190 183 175 172 173 170 168 178 184 168 173 177 185 194 198 235 244 243 237
184 182 175 237 248 275 201 250 237 205 217 206 203 235 160 169 173 177 175 173 177 180 184 189 194 198 193 192 199 197 193 191 184 176 170 173 168 162 167 163 164 170 177 195 202 223 232 240 246
183 203 196 264 112 302 247 268 311 275 238 220 218 165 175 178 175 181 174 179 185 188 194 195 196 201 201 196 196 199 196 193 185 168 156 160 152 158 157 161 172 179 188 198 207 223 238 239 256
217 167 134 231 246 242 277 278 267 208 231 223 191 205 216 207 192 187 189 194 194 198 199 196 197 203 203 194 197 199 197 192 169 160 164 160 161 159 157 163 168 185 197 201 210 227 255 256 257
168 237 223 269 190 237 270 272 276 139 154 176 208 204 226 199 199 197 198 197 194 193 193 194 195 196 200 195 190 193 191 181 170 169 164 163 149 152 157 167 179 189 198 205 217 228 249 261 264
234 220 188 221 237 232 234 261 221 153 164 161 193 198 213 200 196 196 204 190 185 194 189 197 199 197 201 193 187 189 168 169 172 170 159 152 157 155 156 164 177 189 208 216 228 240 249 253 262